Altus AFB, OK

7:16 PM CST on November 24, 2017 (GMT -0600)
Altus Air Force Base

Weather History for KLTS - October, 2011

Change the Weather History Date:

Friday, October 28, 2011

  Actual Average Record
Temperature  
Mean Temperature 48 °F -  
Max Temperature 58 °F 67 °F 86 °F (2016)
Min Temperature 38 °F 46 °F 27 °F (2017)
Degree Days  
Heating Degree Days 17    
Moisture  
Dew Point 36 °F    
Average Humidity 68    
Maximum Humidity 92    
Minimum Humidity 37    
Precipitation  
Precipitation 0.00 in - - ()
Sea Level Pressure  
Sea Level Pressure 30.28 in    
Wind  
Wind Speed 7 mph (NW)    
Max Wind Speed 10 mph    
Max Gust Speed -    
Visibility 10 miles    
Events      
Averages and records for this station are not official NWS values.
T = Trace of Precipitation, MM = Missing Value Source: NWS Daily Summary

Daily Weather History Graph

Daily Weather History Graph

Search for Another Location

Airport or City:

Trip Planner

Search our weather history database for the weather conditions in past years. The results will help you decide how hot, cold, wet, or windy it might be!

Date:

Astronomy

Oct. 28, 2011 Rise Set
Actual Time 7:53 AM CDT 6:47 PM CDT
Civil Twilight 7:27 AM CDT 7:13 PM CDT
Nautical Twilight 6:58 AM CDT 7:43 PM CDT
Astronomical Twilight 6:28 AM CDT 8:12 PM CDT
Moon 10:04 AM CDT (10/28) 8:19 PM CDT (10/28)
Length of Visible Light 11h 45m
Length of Day
10h 53m
Waxing Crescent, 5% of the Moon is Illuminated
Oct 28
Waxing Crescent
Nov 2
First Quarter
Nov 10
Full
Nov 18
Last Quarter
Nov 25
New

Hourly Weather History & Observations

Time (CDT) Temp. Windchill Dew Point Humidity Pressure Visibility Wind Dir Wind Speed Gust Speed Precip Events Conditions
12:55 AM 42.3 °F 37.3 °F 39.6 °F 90% 30.24 in 10.0 mi NW 8.1 mph - N/A   Clear
1:55 AM 41.5 °F 36.4 °F 39.4 °F 92% 30.23 in 10.0 mi NW 8.1 mph - N/A   Clear
2:55 AM 41.0 °F 35.8 °F 38.7 °F 91% 30.23 in 10.0 mi NW 8.1 mph - N/A   Clear
3:55 AM 40.6 °F 34.3 °F 38.3 °F 91% 30.24 in 10.0 mi NW 10.4 mph - N/A   Clear
4:55 AM 40.1 °F 34.7 °F 37.4 °F 90% 30.24 in 10.0 mi NW 8.1 mph - N/A   Clear
5:55 AM 39.4 °F 34.5 °F 36.5 °F 89% 30.25 in 10.0 mi NW 6.9 mph - N/A   Clear
6:55 AM 39.4 °F 34.5 °F 36.7 °F 90% 30.25 in 10.0 mi NW 6.9 mph - N/A   Scattered Clouds
7:55 AM 38.8 °F 33.8 °F 35.8 °F 89% 30.28 in 10.0 mi NW 6.9 mph - N/A   Clear
8:55 AM 40.1 °F 34.7 °F 36.3 °F 86% 30.32 in 10.0 mi NW 8.1 mph - N/A   Clear
9:55 AM 45.1 °F 42.8 °F 38.1 °F 76% 30.33 in 10.0 mi NNW 4.6 mph - N/A   Clear
10:55 AM 49.3 °F - 39.4 °F 69% 30.33 in 10.0 mi WNW 5.8 mph - N/A   Clear
11:55 AM 52.9 °F - 36.1 °F 53% 30.34 in 10.0 mi WNW 4.6 mph - N/A   Clear
12:55 PM 55.0 °F - 33.6 °F 44% 30.33 in 10.0 mi NNW 9.2 mph - N/A   Clear
1:55 PM 56.5 °F - 32.9 °F 41% 30.31 in 10.0 mi NNW 9.2 mph - N/A   Clear
2:55 PM 57.4 °F - 32.7 °F 39% 30.28 in 10.0 mi Variable 4.6 mph - N/A   Clear
3:55 PM 58.1 °F - 31.8 °F 37% 30.27 in 10.0 mi NW 3.5 mph - N/A   Clear
4:55 PM 57.7 °F - 31.5 °F 37% 30.27 in 10.0 mi NW 5.8 mph - N/A   Clear
5:55 PM 57.2 °F - 32.9 °F 40% 30.27 in 10.0 mi North 4.6 mph - N/A   Clear
6:55 PM 54.5 °F - 34.9 °F 48% 30.28 in 10.0 mi Calm Calm - N/A   Clear
7:55 PM 48.6 °F - 39.6 °F 71% 30.30 in 10.0 mi SW 3.5 mph - N/A   Clear
8:55 PM 49.1 °F - 39.6 °F 70% 30.30 in 10.0 mi South 5.8 mph - N/A   Clear
9:55 PM 47.8 °F - 38.1 °F 69% 30.30 in 10.0 mi Calm Calm - N/A   Clear
10:55 PM 46.0 °F - 37.0 °F 71% 30.30 in 10.0 mi Calm Calm - N/A   Clear
11:55 PM 45.1 °F - 35.8 °F 70% 30.29 in 10.0 mi Calm Calm - N/A   Clear